WetterOnline ( https://www.wetteronline.de )

Wetter aktuell Donauwörth

Aktuelles Wetter: Harburg (503m)

6-stündlich | Neueste Meldungen
Ortszeit Temperatur Wetter
So, 07.03. 13:00 5.6° C bewölkt
So, 07.03. 7:00 -4.2° C wolkig
So, 07.03. 1:00 -2.4° C wolkig
Sa, 06.03. 19:00 1.4° C fast wolkenlos
Sa, 06.03. 13:00 3.2° C wolkenlos
Sa, 06.03. 7:00 -4.2° C wolkenlos
Sa, 06.03. 1:00 -2.7° C wolkenlos
Fr, 05.03. 19:00 0.3° C wolkenlos
Ortszeit Temperatur Wetter
So, 07.03. 13:10 6.0° C leicht bewölkt
So, 07.03. 13:00 5.6° C bewölkt
So, 07.03. 12:50 5.6° C bewölkt
So, 07.03. 12:40 5.1° C bewölkt
So, 07.03. 12:30 4.5° C leicht bewölkt
So, 07.03. 12:20 4.5° C leicht bewölkt
So, 07.03. 12:00 4.3° C wolkenlos
So, 07.03. 11:30 3.0° C wolkenlos
So, 07.03. 11:00 1.9° C wolkenlos
So, 07.03. 10:30 1.0° C wolkenlos
So, 07.03. 10:00 -0.2° C wolkenlos
Ortszeit Relative Feuchte Sichtweite
So, 07.03. 13:00 55% 35 km
So, 07.03. 7:00 70% 55 km
So, 07.03. 1:00 63% 50 km
Sa, 06.03. 19:00 44% 50 km
Sa, 06.03. 13:00 42% 55 km
Sa, 06.03. 7:00 72% 50 km
Sa, 06.03. 1:00 69% 60 km
Fr, 05.03. 19:00 76% 45 km
Ortszeit Relative Feuchte Sichtweite
So, 07.03. 13:10 54% -
So, 07.03. 13:00 55% 35 km
So, 07.03. 12:50 55% -
So, 07.03. 12:40 60% -
So, 07.03. 12:30 58% 28 km
So, 07.03. 12:20 58% -
So, 07.03. 12:00 59% 35 km
So, 07.03. 11:30 60% 30 km
So, 07.03. 11:00 62% 30 km
So, 07.03. 10:30 64% 45 km
So, 07.03. 10:00 65% 35 km
Ortszeit Niederschlagsmenge Niederschlagsart
So, 07.03. 13:00 0.0 l/m2 in 6 Std. -
So, 07.03. 7:00 0.0 l/m2 in 12 Std. -
So, 07.03. 1:00 0.0 l/m2 in 6 Std. -
Sa, 06.03. 19:00 0.0 l/m2 in 12 Std. -
Sa, 06.03. 13:00 0.0 l/m2 in 6 Std. -
Sa, 06.03. 7:00 0.0 l/m2 in 12 Std. -
Sa, 06.03. 1:00 0.0 l/m2 in 6 Std. -
Fr, 05.03. 19:00 0.6 l/m2 in 12 Std. Schnee, Regen
Ortszeit Niederschlagsmenge Niederschlagsart
So, 07.03. 13:10 keine Meldung -
So, 07.03. 13:00 0.0 l/m2 in 1 Std. -
So, 07.03. 12:50 keine Meldung -
So, 07.03. 12:40 keine Meldung -
So, 07.03. 12:30 0.0 l/m2 in 1 Std. -
So, 07.03. 12:20 keine Meldung -
So, 07.03. 12:00 0.0 l/m2 in 1 Std. -
So, 07.03. 11:30 0.0 l/m2 in 1 Std. -
So, 07.03. 11:00 0.0 l/m2 in 1 Std. -
So, 07.03. 10:30 0.0 l/m2 in 1 Std. -
So, 07.03. 10:00 0.0 l/m2 in 1 Std. -
Ortszeit Stärke Spitze Richtung
km/h Bft. km/h Grad Sektor
So, 07.03. 13:00 4 1 18 230° SW
So, 07.03. 7:00 4 1 14 110° O
So, 07.03. 1:00 4 1 18 360° N
Sa, 06.03. 19:00 13 3 31 100° O
Sa, 06.03. 13:00 18 3 40 80° O
Sa, 06.03. 7:00 15 3 20 80° O
Sa, 06.03. 1:00 7 2 22 60° NO
Fr, 05.03. 19:00 6 1 31 360° N
Ortszeit Stärke Spitze Richtung
km/h Bft. km/h Grad Sektor
So, 07.03. 13:10 7 2 - 270° W
So, 07.03. 13:00 4 1 11 230° SW
So, 07.03. 12:50 4 1 - 230° SW
So, 07.03. 12:40 6 1 - 120° SO
So, 07.03. 12:30 4 1 11 140° SO
So, 07.03. 12:20 4 1 - 140° SO
So, 07.03. 12:00 4 1 18 150° SO
So, 07.03. 11:30 7 2 14 140° SO
So, 07.03. 11:00 7 2 18 150° SO
So, 07.03. 10:30 7 2 18 130° SO
So, 07.03. 10:00 9 2 17 130° SO
Ortszeit Untergrenze Bedeckung Gattung
total tief tief mittel hoch
So, 07.03. 13:00 1500 m 7/8 7/8 - - -
So, 07.03. 7:00 9000 m 8/8 0/8 - - -
So, 07.03. 1:00 9000 m 8/8 0/8 - - -
Sa, 06.03. 19:00 8700 m 1/8 0/8 - - -
Sa, 06.03. 13:00 - 0/8 0/8 - - -
Sa, 06.03. 7:00 - 0/8 0/8 - - -
Sa, 06.03. 1:00 - 0/8 0/8 - - -
Fr, 05.03. 19:00 - 0/8 0/8 - - -
Ortszeit Bedeckungsgrad in Achtel und Wolkenuntergrenze
So, 07.03. 13:10 4(1500m)
So, 07.03. 13:00 7(1500m)
So, 07.03. 12:50 7(1500m)
So, 07.03. 12:40 7(1500m)
So, 07.03. 12:30 4(1500m)
So, 07.03. 12:20 4(1500m)
So, 07.03. 12:00 keine Wolken
So, 07.03. 11:30 keine Wolken
So, 07.03. 11:00 keine Wolken
So, 07.03. 10:30 keine Wolken
So, 07.03. 10:00 keine Wolken
Ortszeit Luftdruck NN (hPa) Tendenz (hPa in 3 Std.)
So, 07.03. 13:00 1022 - 1,9
So, 07.03. 7:00 1028 - 1,1
So, 07.03. 1:00 1030 - 0,6
Sa, 06.03. 19:00 1031 - 0,5
Sa, 06.03. 13:00 1032 - 0,6
Sa, 06.03. 7:00 1034 + 0,2
Sa, 06.03. 1:00 1033 + 0,8
Fr, 05.03. 19:00 1029 + 2,5
Ortszeit Luftdruck NN (hPa) Tendenz (hPa in 3 Std.)
So, 07.03. 13:10 1022 keine Meldung
So, 07.03. 13:00 1022 - 1,9
So, 07.03. 12:50 1022 keine Meldung
So, 07.03. 12:40 1023 keine Meldung
So, 07.03. 12:30 1023 - 1,7
So, 07.03. 12:20 1023 keine Meldung
So, 07.03. 12:00 1023 - 1,6
So, 07.03. 11:30 1024 - 1,2
So, 07.03. 11:00 1025 - 0,9
So, 07.03. 10:30 1025 - 0,8
So, 07.03. 10:00 1026 - 0,8
Ortszeit Schneehöhe (cm)
So, 07.03. 13:00 0
So, 07.03. 7:00 0
So, 07.03. 1:00 0
Sa, 06.03. 19:00 0
Sa, 06.03. 13:00 0
Sa, 06.03. 7:00 0
Sa, 06.03. 1:00 0
Fr, 05.03. 19:00 0
Ortszeit Schneehöhe (cm)
So, 07.03. 13:10 0
So, 07.03. 13:00 0
So, 07.03. 12:50 0
So, 07.03. 12:40 0
So, 07.03. 12:30 0
So, 07.03. 12:20 0
So, 07.03. 12:00 0
So, 07.03. 11:30 0
So, 07.03. 11:00 0
So, 07.03. 10:30 0
So, 07.03. 10:00 0
Link zu dieser Seite / Seite empfehlen

Das Wetter in ...